Weather History for China Lake, CA

Change the Weather History Date:

Monday, February 11, 2013

  Actual Average Record
Temperature  
Mean Temperature 44 °F -  
Max Temperature 55 °F 59 °F 73 °F (2008)
Min Temperature 30 °F 36 °F 21 °F (2011)
Degree Days  
Heating Degree Days 21    
Moisture  
Dew Point 4 °F    
Average Humidity 20    
Maximum Humidity 36    
Minimum Humidity 10    
Precipitation  
Precipitation 0.00 in - - ()
Sea Level Pressure  
Sea Level Pressure 30.15 in    
Wind  
Wind Speed 11 mph (NNW)    
Max Wind Speed 17 mph    
Max Gust Speed 25 mph    
Visibility 10 miles    
Events      
Averages and records for this station are not official NWS values.
T = Trace of Precipitation, MM = Missing Value Source: NWS Daily Summary

Daily Weather History Graph

Daily Weather History Graph

Search for Another Location

Airport:

Trip Planner

Search our weather history database for the weather conditions in past years. The results will help you decide how hot, cold, wet, or windy it might be!

Date:

Astronomy

Feb. 11, 2013 Rise Set
Actual Time 6:41 AM PST 5:29 PM PST
Civil Twilight 6:15 AM PST 5:55 PM PST
Nautical Twilight 5:45 AM PST 6:25 PM PST
Astronomical Twilight 5:15 AM PST 6:55 PM PST
Moon 7:13 AM PST (2/11) 7:24 PM PST (2/11)
Length of Visible Light 11h 40m
Length of Day
10h 47m
Waxing Crescent, 3% of the Moon is Illuminated
Feb 11
Waxing Crescent
Feb 17
First Quarter
Feb 25
Full
Mar 4
Last Quarter
Mar 11
New

Hourly Weather History & Observations

Time (PST) Temp. Windchill Dew Point Humidity Pressure Visibility Wind Dir Wind Speed Gust Speed Precip Events Conditions
12:56 AM 43.0 °F 35.7 °F - N/A% 30.05 in 10.0 mi NNW 15.0 mph - N/A   Clear
1:56 AM 41.0 °F 34.3 °F - N/A% 30.07 in 10.0 mi NW 11.5 mph - N/A   Scattered Clouds
3:56 AM 39.9 °F 32.9 °F - N/A% 30.08 in 10.0 mi NNW 11.5 mph - N/A   Clear
5:56 AM 39.9 °F 33.4 °F 13.8 °F 35% 30.09 in 10.0 mi NNW 10.4 mph - N/A   Mostly Cloudy
6:56 AM 37.0 °F 29.8 °F 12.0 °F 36% 30.12 in 10.0 mi NW 10.4 mph - N/A   Partly Cloudy
7:56 AM 42.1 °F 36.1 °F 12.9 °F 31% 30.15 in 10.0 mi NNW 10.4 mph - N/A   Clear
8:56 AM 46.9 °F - 12.9 °F 25% 30.16 in 10.0 mi North 9.2 mph - N/A   Clear
9:56 AM 50.0 °F - 9.0 °F 19% 30.17 in 10.0 mi North 10.4 mph 21.9 mph N/A   Clear
10:56 AM 52.0 °F - 3.9 °F 14% 30.17 in 10.0 mi North 12.7 mph 21.9 mph N/A   Clear
11:56 AM 53.1 °F - 1.0 °F 12% 30.14 in 10.0 mi North 17.3 mph 25.3 mph N/A   Clear
12:56 PM 55.0 °F - -0.9 °F 10% 30.12 in 10.0 mi North 17.3 mph 25.3 mph N/A   Clear
1:56 PM 54.0 °F - 1.9 °F 12% 30.11 in 10.0 mi ENE 10.4 mph 23.0 mph N/A   Clear
2:56 PM 55.0 °F - 1.9 °F 12% 30.10 in 10.0 mi NE 8.1 mph - N/A   Clear
3:56 PM 55.0 °F - 1.0 °F 11% 30.11 in 10.0 mi ENE 5.8 mph - N/A   Clear
4:56 PM 53.1 °F - 1.0 °F 12% 30.12 in 10.0 mi East 10.4 mph - N/A   Clear
5:56 PM 48.0 °F - 1.0 °F 14% 30.14 in 10.0 mi SSE 9.2 mph - N/A   Clear
6:56 PM 45.0 °F 41.2 °F 1.0 °F 16% 30.17 in 10.0 mi South 6.9 mph - N/A   Clear
7:56 PM 39.9 °F 33.9 °F -0.0 °F 19% 30.20 in 10.0 mi SSW 9.2 mph - N/A   Clear
8:56 PM 37.0 °F 31.0 °F 1.0 °F 22% 30.22 in 10.0 mi South 8.1 mph - N/A   Clear
9:56 PM 36.0 °F 33.3 °F -0.0 °F 22% 30.23 in 10.0 mi SW 3.5 mph - N/A   Clear
10:56 PM 33.1 °F 28.7 °F 1.0 °F 26% 30.25 in 10.0 mi SSW 4.6 mph - N/A   Clear
11:56 PM 30.9 °F 27.5 °F 1.9 °F 29% 30.26 in 10.0 mi South 3.5 mph - N/A   Clear